Location: Red Deer
(52.2681°N, 113.8112°W)
Time: 17:27:03
(UTC-07:00)

BlueWalker 3 - Visible Passes

Search period start: 30 November 2022 00:00
Search period end: 10 December 2022 00:00
Orbit: 500 x 519 km, 53.2° (Epoch: 30 November)

Date Brightness Start Highest point End Pass type
(mag) Time Alt. Az. Time Alt. Az. Time Alt. Az.
30 Nov 2.1 17:29:24 10° WSW 17:33:18 73° SSE 17:36:35 14° ENE visible
30 Nov 2.4 19:08:07 10° W 19:11:25 59° WNW 19:11:25 59° WNW visible
01 Dec 2.1 17:11:01 10° WSW 17:14:56 75° SSE 17:18:50 10° ENE visible
01 Dec 1.8 18:49:45 10° W 18:53:41 76° N 18:53:45 76° NNE visible
01 Dec 5.4 20:28:30 10° WNW 20:28:34 10° WNW 20:28:34 10° WNW visible
02 Dec 1.9 18:31:23 10° W 18:35:18 76° N 18:36:06 54° ENE visible
02 Dec 4.9 20:10:08 10° WNW 20:10:55 15° WNW 20:10:55 15° WNW visible
03 Dec 1.9 18:13:00 10° W 18:16:56 76° N 18:18:28 35° E visible
03 Dec 4.4 19:51:45 10° WNW 19:53:17 22° W 19:53:17 22° W visible
04 Dec 1.9 17:54:36 10° W 17:58:33 77° N 18:00:52 23° E visible
04 Dec 3.6 19:33:21 10° WNW 19:35:42 33° W 19:35:42 33° W visible
05 Dec 1.9 17:36:13 10° W 17:40:09 77° N 17:43:19 15° E visible
05 Dec 2.8 19:14:58 10° WNW 19:18:10 48° WSW 19:18:10 48° WSW visible
06 Dec 1.9 17:17:49 10° W 17:21:45 78° N 17:25:39 10° E visible
06 Dec 2.4 18:56:33 10° WNW 19:00:23 54° SSW 19:00:41 52° S visible
07 Dec 2.0 16:59:25 10° W 17:03:21 79° N 17:07:16 10° E visible
07 Dec 2.6 18:38:09 10° WNW 18:41:58 52° SSW 18:43:20 33° SSE visible
07 Dec 5.2 20:17:50 10° WSW 20:18:10 11° WSW 20:18:10 11° WSW visible
08 Dec 2.7 18:19:44 10° WNW 18:23:32 50° SSW 18:26:06 19° SE visible
08 Dec 4.9 19:59:32 10° WSW 20:00:58 13° SW 20:00:58 13° SW visible
09 Dec 2.9 18:01:19 10° WNW 18:05:06 48° SSW 18:08:51 10° SE visible
09 Dec 4.8 19:41:15 10° WSW 19:43:02 13° SW 19:43:57 12° SSW visible
